• Em Portugal
  • Lista de países
  • Para 7 dias
  • Temperatura da água
  • Mapas de satélite
  • Mapa do tempo
  • Widgets de tempo
  • user-avatar
    Iniciar Sessão

    Previsão horária em Cochabamba

    Hoje, 16 Novembro, Sexta-feira

    Tempo Temperatura Precipitação Vento Pressão Humidade
    00:00 +17°C° 0.2 mm 2 m/s 555 mmHg 70%
    01:00 +17°C° 0.2 mm 2 m/s 555 mmHg 70%
    02:00 +18°C° 0.2 mm 1 m/s 555 mmHg 70%
    03:00 +18°C° 0.1 mm 1 m/s 555 mmHg 70%
    04:00 +18°C° 0.1 mm 1 m/s 555 mmHg 69%
    05:00 +16°C° 0.1 mm 1 m/s 554 mmHg 69%
    06:00 +18°C° 0.1 mm 1 m/s 555 mmHg 65%
    07:00 +19°C° 0.1 mm 1 m/s 556 mmHg 61%
    08:00 +20°C° 0.1 mm 1 m/s 556 mmHg 57%
    09:00 +20°C° 0.2 mm 2 m/s 557 mmHg 54%
    10:00 +21°C° 0.2 mm 2 m/s 558 mmHg 51%
    11:00 +22°C° 0.2 mm 3 m/s 558 mmHg 47%
    12:00 +22°C° 0.3 mm 3 m/s 558 mmHg 49%
    13:00 +22°C° 0.3 mm 3 m/s 557 mmHg 52%
    14:00 +22°C° 0.3 mm 4 m/s 556 mmHg 54%
    15:00 +22°C° 0.3 mm 4 m/s 556 mmHg 56%
    16:00 +21°C° 0.3 mm 4 m/s 555 mmHg 58%
    17:00 +21°C° 0.3 mm 4 m/s 555 mmHg 60%
    18:00 +20°C° 0.1 mm 3 m/s 555 mmHg 64%
    19:00 +19°C° 0.1 mm 3 m/s 555 mmHg 68%
    20:00 +18°C° 0.1 mm 3 m/s 555 mmHg 72%
    21:00 +18°C° 0.1 mm 3 m/s 555 mmHg 72%
    22:00 +17°C° 0.1 mm 2 m/s 555 mmHg 72%
    23:00 +17°C° 0.1 mm 2 m/s 556 mmHg 73%

    Amanhã, 17 Novembro, Sábado

    Tempo Temperatura Precipitação Vento Pressão Humidade
    00:00 +17°C° 0.2 mm 2 m/s 555 mmHg 72%
    01:00 +16°C° 0.2 mm 1 m/s 555 mmHg 72%
    02:00 +16°C° 0.2 mm 1 m/s 554 mmHg 72%
    03:00 +16°C° 0.2 mm 1 m/s 554 mmHg 72%
    04:00 +16°C° 0.2 mm 1 m/s 554 mmHg 72%
    05:00 +16°C° 0.2 mm 1 m/s 554 mmHg 72%
    06:00 +18°C° 0.2 mm 1 m/s 555 mmHg 68%
    07:00 +17°C° 0.2 mm 2 m/s 555 mmHg 65%
    08:00 +18°C° 0.2 mm 2 m/s 556 mmHg 61%
    09:00 +19°C° 0.4 mm 2 m/s 557 mmHg 58%
    10:00 +20°C° 0.4 mm 3 m/s 557 mmHg 54%
    11:00 +21°C° 0.4 mm 3 m/s 558 mmHg 51%
    12:00 +22°C° 0.5 mm 3 m/s 557 mmHg 52%
    13:00 +22°C° 0.5 mm 3 m/s 556 mmHg 54%
    14:00 +22°C° 0.5 mm 3 m/s 555 mmHg 55%
    15:00 +21°C° 0.6 mm 3 m/s 555 mmHg 58%
    16:00 +21°C° 0.6 mm 3 m/s 554 mmHg 60%
    17:00 +20°C° 0.6 mm 3 m/s 554 mmHg 62%
    18:00 +20°C° 0.6 mm 3 m/s 554 mmHg 65%
    19:00 +19°C° 0.6 mm 3 m/s 554 mmHg 67%
    20:00 +18°C° 0.6 mm 3 m/s 554 mmHg 70%
    21:00 +18°C° 0.5 mm 2 m/s 554 mmHg 71%
    22:00 +18°C° 0.5 mm 2 m/s 555 mmHg 72%
    23:00 +18°C° 0.5 mm 2 m/s 555 mmHg 73%

    Depois de amanhã, 18 Novembro, Domingo

    Tempo Temperatura Precipitação Vento Pressão Humidade
    00:00 +17°C° 0.2 mm 2 m/s 555 mmHg 74%
    01:00 +17°C° 0.2 mm 2 m/s 554 mmHg 74%
    02:00 +18°C° 0.2 mm 1 m/s 553 mmHg 75%
    03:00 +16°C° 0.2 mm 1 m/s 553 mmHg 75%
    04:00 +16°C° 0.2 mm 1 m/s 553 mmHg 74%
    05:00 +16°C° 0.2 mm 1 m/s 553 mmHg 74%
    06:00 +18°C° 0.1 mm 1 m/s 554 mmHg 69%
    07:00 +19°C° 0.1 mm 1 m/s 555 mmHg 63%
    08:00 +20°C° 0.1 mm 1 m/s 556 mmHg 58%
    09:00 +22°C° 0.3 mm 1 m/s 556 mmHg 55%
    10:00 +23°C° 0.3 mm 2 m/s 557 mmHg 52%
    11:00 +24°C° 0.3 mm 3 m/s 558 mmHg 49%
    12:00 +22°C° 0.9 mm 3 m/s 557 mmHg 53%
    13:00 +22°C° 0.9 mm 4 m/s 556 mmHg 56%
    14:00 +22°C° 0.9 mm 4 m/s 556 mmHg 60%
    15:00 +21°C° 1.9 mm 4 m/s 555 mmHg 65%
    16:00 +19°C° 1.9 mm 3 m/s 554 mmHg 70%
    17:00 +18°C° 1.9 mm 3 m/s 554 mmHg 75%
    18:00 +18°C° 2.1 mm 2 m/s 554 mmHg 76%
    19:00 +17°C° 2.1 mm 2 m/s 555 mmHg 78%
    20:00 +16°C° 2.1 mm 2 m/s 555 mmHg 80%
    21:00 +16°C° 2.4 mm 2 m/s 555 mmHg 81%
    22:00 +14°C° 2.4 mm 3 m/s 555 mmHg 83%
    23:00 +14°C° 2.4 mm 3 m/s 556 mmHg 84%

    19 Novembro, Segunda-feira

    Tempo Temperatura Precipitação Vento Pressão Humidade
    00:00 +14°C° 2.8 mm 3 m/s 555 mmHg 84%
    01:00 +14°C° 2.8 mm 2 m/s 555 mmHg 84%
    02:00 +14°C° 2.8 mm 2 m/s 554 mmHg 84%
    03:00 +14°C° 2.6 mm 2 m/s 554 mmHg 84%
    04:00 +13°C° 2.6 mm 2 m/s 554 mmHg 85%
    05:00 +13°C° 2.6 mm 1 m/s 554 mmHg 85%
    06:00 +13°C° 1.5 mm 1 m/s 554 mmHg 85%
    07:00 +13°C° 1.5 mm 1 m/s 555 mmHg 84%
    08:00 +14°C° 1.5 mm 1 m/s 555 mmHg 83%
    09:00 +14°C° 1.5 mm 1 m/s 555 mmHg 82%
    10:00 +14°C° 1.5 mm 1 m/s 556 mmHg 81%
    11:00 +14°C° 1.5 mm 1 m/s 556 mmHg 80%
    12:00 +15°C° 1.1 mm 1 m/s 556 mmHg 78%
    13:00 +15°C° 1.1 mm 1 m/s 555 mmHg 75%
    14:00 +16°C° 1.1 mm 1 m/s 555 mmHg 73%
    15:00 +16°C° 0.6 mm 1 m/s 555 mmHg 73%
    16:00 +16°C° 0.6 mm 1 m/s 554 mmHg 72%
    17:00 +16°C° 0.6 mm 1 m/s 554 mmHg 71%
    18:00 +16°C° 0.2 mm 1 m/s 554 mmHg 73%
    19:00 +15°C° 0.2 mm 1 m/s 554 mmHg 74%
    20:00 +15°C° 0.2 mm 1 m/s 554 mmHg 75%
    21:00 +14°C° 0.4 mm 0 m/s 555 mmHg 76%
    22:00 +14°C° 0.4 mm 0 m/s 555 mmHg 77%
    23:00 +14°C° 0.4 mm 0 m/s 555 mmHg 78%

    20 Novembro, Terça-feira

    Tempo Temperatura Precipitação Vento Pressão Humidade
    00:00 +14°C° 0.6 mm 0 m/s 555 mmHg 79%
    01:00 +13°C° 0.6 mm 0 m/s 554 mmHg 80%
    02:00 +14°C° 0.6 mm 1 m/s 554 mmHg 80%
    03:00 +14°C° 0.3 mm 1 m/s 554 mmHg 81%
    04:00 +14°C° 0.3 mm 1 m/s 554 mmHg 81%
    05:00 +14°C° 0.3 mm 1 m/s 554 mmHg 81%
    06:00 +14°C° 0.3 mm 1 m/s 554 mmHg 79%
    07:00 +15°C° 0.3 mm 1 m/s 555 mmHg 77%
    08:00 +15°C° 0.3 mm 1 m/s 556 mmHg 75%
    09:00 +16°C° 0.4 mm 1 m/s 556 mmHg 71%
    10:00 +18°C° 0.4 mm 1 m/s 556 mmHg 67%
    11:00 +18°C° 0.4 mm 2 m/s 557 mmHg 63%
    12:00 +18°C° 0.5 mm 2 m/s 556 mmHg 62%
    13:00 +19°C° 0.5 mm 2 m/s 556 mmHg 62%
    14:00 +19°C° 0.5 mm 3 m/s 555 mmHg 61%
    15:00 +19°C° 0.3 mm 3 m/s 555 mmHg 62%
    16:00 +19°C° 0.3 mm 2 m/s 554 mmHg 64%
    17:00 +18°C° 0.3 mm 2 m/s 554 mmHg 65%
    18:00 +18°C° 0.2 mm 2 m/s 554 mmHg 68%
    19:00 +17°C° 0.2 mm 2 m/s 555 mmHg 72%
    20:00 +16°C° 0.2 mm 2 m/s 555 mmHg 75%
    21:00 +16°C° 0.4 mm 2 m/s 555 mmHg 76%
    22:00 +16°C° 0.4 mm 2 m/s 555 mmHg 76%
    23:00 +15°C° 0.4 mm 2 m/s 556 mmHg 77%

    21 Novembro, Quarta-feira

    Tempo Temperatura Precipitação Vento Pressão Humidade
    00:00 +15°C° 0.5 mm 1 m/s 555 mmHg 77%
    01:00 +15°C° 0.5 mm 1 m/s 555 mmHg 76%
    02:00 +15°C° 0.5 mm 1 m/s 554 mmHg 76%
    03:00 +15°C° 0.4 mm 1 m/s 554 mmHg 76%
    04:00 +15°C° 0.4 mm 1 m/s 554 mmHg 76%
    05:00 +14°C° 0.4 mm 1 m/s 554 mmHg 76%
    06:00 +15°C° 0.5 mm 1 m/s 555 mmHg 75%
    07:00 +15°C° 0.5 mm 1 m/s 555 mmHg 73%
    08:00 +15°C° 0.5 mm 0 m/s 556 mmHg 72%
    09:00 +18°C° 0.6 mm 1 m/s 556 mmHg 68%
    10:00 +19°C° 0.6 mm 1 m/s 556 mmHg 65%
    11:00 +18°C° 0.6 mm 2 m/s 557 mmHg 61%
    12:00 +19°C° 0.2 mm 2 m/s 556 mmHg 59%
    13:00 +20°C° 0.2 mm 2 m/s 556 mmHg 57%
    14:00 +21°C° 0.2 mm 3 m/s 555 mmHg 54%
    15:00 +20°C° 0.1 mm 3 m/s 555 mmHg 57%
    16:00 +20°C° 0.1 mm 3 m/s 554 mmHg 59%
    17:00 +20°C° 0.1 mm 3 m/s 554 mmHg 61%
    18:00 +19°C° 0 mm 2 m/s 554 mmHg 64%
    19:00 +18°C° 0 mm 2 m/s 554 mmHg 68%
    20:00 +17°C° 0 mm 2 m/s 554 mmHg 72%
    21:00 +17°C° 0.2 mm 2 m/s 554 mmHg 73%
    22:00 +18°C° 0.2 mm 1 m/s 555 mmHg 74%
    23:00 +18°C° 0.2 mm 1 m/s 555 mmHg 75%
    Mostrar mais